RASSVET-3 1

导读 | 豆包AI

RASSVET-3 1(NORAD编号68360)是俄罗斯“黎明-3”低轨互联网星座的首批量产卫星之一,由俄罗斯私营航天企业Buro 1440主导开发,于2026年3月23日通过联盟-2火箭发射。该卫星单颗质量约370公斤,初始轨道参数为近地点290公里、远地点324公里,倾角82.3度,后续将转移至目标轨道。它搭载5G NTN非地面网络通信系统、星间激光通信终端与等离子推进系统,用于构建俄罗斯自主可控的低轨卫星互联网,被称作俄罗斯版“星链”,是俄从试验阶段转入规模化组网的标志性卫星。

基本信息
目录编号:
68360
目录名称:
RASSVET-3 1
国际标识:
2026-061A
轨道中心:
EARTH
卫星名称:
RASSVET-3 1
卫星全名:
RASSVET-3 1
卫星状态:
在轨 (已飞行38 天)
发射日期:
2026-03-23 UTC
国别 :
俄罗斯(独联体) (CIS)
星等 :
--
轨道信息
数据来源 国际轨道数据
星历时间: 2026-04-30T05:35:58+0800
10小时前
查看轨道信息
半长轴: 6685.954km
偏心率: 0.0017126
轨道倾角: 82.295°
近地点辐角 287.866°
升交点赤经 66.661°
平近点角 72.074°
近地点: 296.366km
远地点: 319.268km
周期: 90.679分钟
每日圈数: 15.880265
详细信息
使用方式:
暂无
2D轨道图
3D轨道图
轨道高度分析图
轨道倾角分析图
轨道综合分析图
查看轨道综合分析图